STARLINK-31537, 59365

Orbit data source: Space-Track

STARLINK-31537, 59365 is a payload satellite owned by SpaceX/Seattle (US) in LEO that was launched on Sun, 31 Mar 2024 UTC via an FALCON 9 launch vehicle from the Air Force Eastern Test Range (AFETR). Payload-class satellites include a variety of spacecraft equipped with specific instruments for various scientific and technological missions. These include communications satellites like Starlink; space stations such as the ISS; scientific satellites like the Hubble; Earth observation satellites from companies like Planet Labs, Umbra, and HawkEye 360; GPS; miniature CubeSats for education and research; and military/defense satellites.

Loading next visibility...
Identifier
59365, 2024-060T
Orbit
LEO
Country
Flag of USUS
Related business
Manufacturer
SpaceX/Seattle
Mission
Operational Commercial Communications
Bus & Motor
STARLINK V2M, Unknown motor
Mass
730 kg wet, ~700 kg dry
Launch date (UTC)
2024-03-31 (2 years ago)
Launch vehicle
FALCON 9
Launch site
Air Force Eastern Test Range (AFETR)
Object type
Payload
Rocket body
Debris
Shape & HBR
Box + 2 Pan, 17.7 m
Radar Cross Section
33.884 m², Large (>1 m²)

Expand to show TLE details & history
Last TLE update: 8 hours ago

TLE from 8 hours ago
0 STARLINK-31537
1 59365U 24060T   25289.47452909  .00001787  00000-0  74469-4 0  9993
2 59365  43.0004 354.5929 0001451 279.0051  81.0637 15.27571292 88005
Epoch: 2025-10-16T11:23Z
TLE epoch observation values (Epoch: 2025-10-16T11:23:19.313Z)
Latitude
0.00003°
Longitude
158.52873°
Altitude
482.696 km
Speed
7.626 km/s
True Right ascension
23h 38m 22s
True Declination
0° 00' 00"
Sunlit
Object was in full shadow at epoch
Visualization orbit readout
Latitude
Unknown
Longitude
Unknown
Altitude
Unknown
Speed
Unknown
Apparent Right ascension
Unknown
Apparent Declination
Unknown
Sunlit
N/A
Visualization observer readout
Local Sidereal Time
14:30:19
Azimuth
Unknown
Elevation
Unknown
Doppler factor
Unknown
Orbital elements
Apogee altitude
486.016 km
Perigee altitude
484.024 km
Semi-major axis
6,863.157 km
Eccentricity
0.00015
Inclination
43.0004°
RAAN
354.5929°
Arg. of periapsis
279.0051°
True anomaly
81.08013°
Mean anomaly
81.0637°
Eccentric anomaly
81.07191°
Mean motion
3.81731 °/min
Orbital period
94.31 mins
BSTAR
0.000074469
Loading maneuver chart data...
Computing Atmospheric mass density...
Loading historical data...
Loading historical data...
Loading historical data...
Loading historical data...
Loading historical data...
Loading historical data...
Loading historical data...

Documentation

Showing up to 5 results
|